Location: Eschertshofen
(49.3064°N, 11.5756°E)
Time: 06:46:10
(UTC+00:00)

Cosmos 1937 Rocket - Pass Details

Date: 18 September 2020
Orbit: 747 x 779 km, 74.0° (Epoch: 18 October)

Event Time Altitude Azimuth Distance (km) Brightness Sun altitude
Rises 18:54:29 0° 215° (SW) 3,235 6.9 -15.9°
Reaches altitude 10° 18:56:55 10° 220° (SW) 2,307 6.2 -16.3°
Maximum altitude 19:02:03 55° 298° (WNW) 922 4.3 -17.0°
Drops below altitude 10° 19:07:10 10° 16° (NNE) 2,301 6.1 -17.8°
Sets 19:09:36 0° 21° (NNE) 3,226 6.8 -18.2°
